Weather History for Fort Morgan, CO

Change the Weather History Date:

Monday, January 6, 2014

  Actual Average (KAKO) Record (KAKO)
Temperature  
Mean Temperature 3 °F 28 °F  
Max Temperature 23 °F 40 °F 66 °F (2006)
Min Temperature -17 °F 17 °F -17 °F (1971)
Degree Days  
Heating Degree Days 62    
Month to date heating degree days  
Cooling Degree Days 0    
Month to date cooling degree days  
Moisture  
Dew Point -5 °F    
Average Humidity 72    
Maximum Humidity 82    
Minimum Humidity 49    
Precipitation  
Precipitation 0.00 in 0.01 in 0.12 in (1986)
Month to date precipitation 0.04  
Year to date precipitation 0.04  
Sea Level Pressure  
Sea Level Pressure 30.20 in    
Wind  
Wind Speed 8 mph (West)    
Max Wind Speed 20 mph    
Max Gust Speed -    
Visibility 10 miles    
Events      
T = Trace of Precipitation, MM = Missing Value Source: NWS Daily Summary

Daily Weather History Graph

Daily Weather History Graph

Search for Another Location

Airport:

Trip Planner

Search our weather history database for the weather conditions in past years. The results will help you decide how hot, cold, wet, or windy it might be!

Date:

Astronomy

Jan. 06, 2014 Rise Set
Actual Time 7:18 AM MST 4:44 PM MST
Civil Twilight 6:47 AM MST 5:14 PM MST
Nautical Twilight 6:13 AM MST 5:48 PM MST
Astronomical Twilight 5:40 AM MST 6:21 PM MST
Moon 10:34 AM MST (1/6) 11:21 PM MST (1/6)
Length of Visible Light 10h 26m
Length of Day
9h 26m
Waxing Crescent, 35% of the Moon is Illuminated
Jan 6
Waxing Crescent
Jan 7
First Quarter
Jan 15
Full
Jan 23
Last Quarter
Jan 30
New

Hourly Weather History & Observations

Time (MST) Temp. Windchill Dew Point Humidity Pressure Visibility Wind Dir Wind Speed Gust Speed Precip Events Conditions
12:15 AM -13.0 °F -31.3 °F -17.3 °F 81% 30.30 in 10.0 mi West 9.2 mph - N/A   Clear
12:35 AM -12.5 °F -28.0 °F -16.4 °F 82% 30.29 in 10.0 mi West 6.9 mph - N/A   Clear
12:55 AM -12.6 °F -29.6 °F -16.8 °F 82% 30.28 in 10.0 mi West 8.1 mph - N/A   Clear
2:15 AM -10.8 °F -28.6 °F -15.3 °F 80% 30.27 in 10.0 mi West 9.2 mph - N/A   Clear
2:35 AM -9.8 °F -26.1 °F -14.4 °F 80% 30.27 in 10.0 mi West 8.1 mph - N/A   Clear
2:55 AM -14.1 °F -28.3 °F -18.8 °F 79% 30.27 in 10.0 mi WSW 5.8 mph - N/A   Clear
3:15 AM -15.2 °F -36.1 °F -20.2 °F 78% 30.26 in 10.0 mi West 11.5 mph - N/A   Clear
3:35 AM -16.6 °F -36.8 °F -21.5 °F 79% 30.26 in 10.0 mi West 10.4 mph - N/A   Clear
3:55 AM -16.2 °F -30.8 °F -21.1 °F 79% 30.26 in 10.0 mi West 5.8 mph - N/A   Clear
4:15 AM -16.2 °F -30.8 °F -21.1 °F 79% 30.27 in 10.0 mi West 5.8 mph - N/A   Clear
4:35 AM -14.8 °F -33.5 °F -19.3 °F 80% 30.26 in 10.0 mi West 9.2 mph - N/A   Clear
4:55 AM -14.6 °F - -19.8 °F 77% 30.27 in 10.0 mi Calm Calm - N/A   Clear
5:15 AM -15.7 °F -25.8 °F -20.7 °F 78% 30.26 in 10.0 mi WSW 3.5 mph - N/A   Clear
5:35 AM -16.6 °F -36.8 °F -22.0 °F 76% 30.27 in 10.0 mi SW 10.4 mph - N/A   Clear
5:55 AM -16.6 °F -32.9 °F -22.0 °F 76% 30.27 in 10.0 mi WSW 6.9 mph - N/A   Clear
6:15 AM -17.3 °F -36.6 °F -22.2 °F 79% 30.28 in 10.0 mi West 9.2 mph - N/A   Clear
6:35 AM -16.4 °F -38.7 °F -21.8 °F 76% 30.28 in 10.0 mi West 12.7 mph - N/A   Clear
6:55 AM -15.3 °F -37.3 °F -20.4 °F 78% 30.27 in 10.0 mi West 12.7 mph - N/A   Clear
7:15 AM -13.4 °F -32.8 °F -18.0 °F 80% 30.27 in 10.0 mi WNW 10.4 mph - N/A   Clear
7:35 AM -11.0 °F -27.6 °F -15.7 °F 80% 30.27 in 10.0 mi West 8.1 mph - N/A   Clear
7:55 AM -10.1 °F -23.6 °F -15.0 °F 79% 30.27 in 10.0 mi West 5.8 mph - N/A   Clear
8:15 AM -6.3 °F -19.1 °F -11.2 °F 79% 30.28 in 10.0 mi West 5.8 mph - N/A   Clear
8:35 AM -5.8 °F -21.2 °F -11.0 °F 78% 30.28 in 10.0 mi West 8.1 mph - N/A   Clear
8:55 AM -4.0 °F -21.2 °F -8.9 °F 80% 30.29 in 10.0 mi West 10.4 mph - N/A   Clear
9:15 AM -3.5 °F -22.3 °F -8.5 °F 79% 30.29 in 10.0 mi West 12.7 mph - N/A   Clear
9:35 AM -1.8 °F -21.0 °F -7.2 °F 78% 30.29 in 10.0 mi West 13.8 mph - N/A   Clear
9:55 AM -0.4 °F -16.7 °F -5.8 °F 78% 30.29 in 10.0 mi West 10.4 mph - N/A   Clear
10:15 AM 2.7 °F -12.9 °F -4.0 °F 74% 30.29 in 10.0 mi West 10.4 mph - N/A   Clear
10:35 AM 4.5 °F -10.7 °F -3.5 °F 70% 30.28 in 10.0 mi West 10.4 mph - N/A   Clear
10:55 AM 4.8 °F -9.3 °F -3.1 °F 70% 30.27 in 10.0 mi West 9.2 mph - N/A   Clear
11:15 AM 8.1 °F 1.4 °F -2.2 °F 63% 30.24 in 10.0 mi West 3.5 mph - N/A   Clear
11:35 AM 11.3 °F 0.7 °F 0.3 °F 61% 30.24 in 10.0 mi WSW 6.9 mph - N/A   Clear
11:55 AM 11.7 °F -0.9 °F 0.7 °F 61% 30.23 in 10.0 mi West 9.2 mph - N/A   Clear
12:15 PM 14.0 °F 8.2 °F 1.4 °F 57% 30.21 in 10.0 mi WSW 3.5 mph - N/A   Clear
12:35 PM 15.6 °F - 1.6 °F 54% 30.20 in 10.0 mi Calm Calm - N/A   Clear
12:55 PM 15.6 °F 7.0 °F 3.0 °F 58% 30.18 in 10.0 mi SSW 5.8 mph - N/A   Clear
1:15 PM 17.6 °F 9.3 °F 4.5 °F 56% 30.18 in 10.0 mi WSW 5.8 mph - N/A   Clear
1:35 PM 18.9 °F 9.8 °F 4.8 °F 54% 30.17 in 10.0 mi South 6.9 mph - N/A   Clear
1:55 PM 20.1 °F 15.2 °F 5.5 °F 53% 30.17 in 10.0 mi SW 3.5 mph - N/A   Clear
2:15 PM 20.3 °F 13.8 °F 5.4 °F 52% 30.16 in 10.0 mi SSW 4.6 mph - N/A   Clear
2:35 PM 21.0 °F - 5.9 °F 52% 30.16 in 10.0 mi Calm Calm - N/A   Clear
2:55 PM 21.7 °F - 6.6 °F 52% 30.16 in 10.0 mi Calm Calm - N/A   Clear
3:15 PM 21.4 °F - 6.1 °F 52% 30.16 in 10.0 mi Calm Calm - N/A   Clear
3:35 PM 23.4 °F - 6.6 °F 49% 30.17 in 10.0 mi Calm Calm - N/A   Clear
3:55 PM 21.9 °F - 6.1 °F 51% 30.15 in 10.0 mi Calm Calm - N/A   Scattered Clouds
4:15 PM 21.7 °F - 7.3 °F 54% 30.15 in 10.0 mi Calm Calm - N/A   Mostly Cloudy
4:35 PM 19.9 °F - 7.2 °F 58% 30.14 in 10.0 mi Calm Calm - N/A   Scattered Clouds
4:55 PM 18.5 °F - 6.3 °F 59% 30.14 in 10.0 mi Calm Calm - N/A   Clear
5:15 PM 16.7 °F 9.6 °F 6.1 °F 63% 30.14 in 10.0 mi West 4.6 mph - N/A   Clear
5:35 PM 12.7 °F 3.6 °F 4.3 °F 69% 30.13 in 10.0 mi West 5.8 mph - N/A   Clear
5:55 PM 12.9 °F 5.2 °F 4.6 °F 70% 30.13 in 10.0 mi WNW 4.6 mph - N/A   Clear
6:15 PM 14.0 °F 5.1 °F 5.2 °F 68% 30.13 in 10.0 mi West 5.8 mph - N/A   Clear
6:35 PM 9.7 °F -1.3 °F 2.1 °F 71% 30.14 in 10.0 mi West 6.9 mph - N/A   Clear
6:55 PM 8.6 °F -5.5 °F 2.3 °F 76% 30.14 in 10.0 mi West 10.4 mph - N/A   Clear
7:15 PM 9.1 °F -4.9 °F 3.0 °F 76% 30.14 in 10.0 mi West 10.4 mph - N/A   Clear
7:35 PM 7.9 °F -9.9 °F 2.5 °F 79% 30.14 in 10.0 mi West 16.1 mph - N/A   Clear
7:55 PM 7.7 °F -8.2 °F 2.3 °F 79% 30.12 in 10.0 mi West 12.7 mph - N/A   Clear
8:15 PM 6.8 °F -5.9 °F 1.9 °F 80% 30.11 in 10.0 mi West 8.1 mph - N/A   Clear
8:35 PM 6.4 °F -7.3 °F 1.6 °F 80% 30.11 in 10.0 mi West 9.2 mph - N/A   Clear
8:55 PM 5.5 °F -6.3 °F 0.5 °F 80% 30.11 in 10.0 mi West 6.9 mph - N/A   Clear
9:15 PM 4.8 °F -11.1 °F -0.0 °F 80% 30.11 in 10.0 mi West 11.5 mph - N/A   Clear
9:35 PM 3.9 °F -14.3 °F -0.4 °F 82% 30.10 in 10.0 mi West 15.0 mph - N/A   Clear
9:55 PM 5.5 °F -12.9 °F 0.3 °F 79% 30.10 in 10.0 mi West 16.1 mph - N/A   Clear
10:15 PM 5.2 °F -13.3 °F -0.4 °F 78% 30.09 in 10.0 mi West 16.1 mph - N/A   Clear
10:35 PM 5.7 °F -12.6 °F -0.4 °F 76% 30.08 in 10.0 mi West 16.1 mph - N/A   Clear
10:55 PM 5.9 °F -12.4 °F 0.1 °F 77% 30.07 in 10.0 mi West 16.1 mph - N/A   Clear
11:15 PM 2.5 °F -17.4 °F -2.4 °F 80% 30.06 in 10.0 mi West 17.3 mph - N/A   Clear
11:35 PM 3.0 °F -17.8 °F -1.7 °F 81% 30.05 in 10.0 mi West 19.6 mph - N/A   Clear
11:55 PM 3.7 °F -15.2 °F -1.3 °F 80% 30.04 in 10.0 mi West 16.1 mph - N/A   Clear